[[{"header":{"parameterUnit":"m.s-1","parameterCategory":1,"la1":30.2991,"la2":30.254,"lo1":-89.0895,"lo2":-89.0444,"dy":0.0017,"dx":0.0017,"nx":28,"ny":28,"refTime":"2024-08-02T21:00:00:Z","depth":0,"parameterNumber":2,"parameterNumberName":"U-component_of_WINDS"},"data":[0,0,0,0,0,0,0,0,0,0,0,0,0,0,0,0,0,0,0,0,0,0,0,0,0,0,0,0,0,0,0,0,0,0,0,0,0,0,0,0,0,0,0,0,0,0,0,0,0,0,0,0,0,0,0,0,0,0,0.2118,0.212,0,0.2305,0.2307,0.2309,0.2404,0.2404,0.2404,0.2404,0.2599,0.2604,0.2609,0,0,0,0,0,0,0,0,0,0,0,0,0,0.1845,0.185,0.2118,0.212,0.2122,0.2305,0.2307,0.231,0.2404,0.2404,0.2404,0.2404,0.2597,0.2603,0.2609,0,0,0,0,0,0,0,0,0,0,0,0,0,0.1991,0.1851,0.2117,0.2191,0.22,0.2304,0.2307,0.2311,0.2404,0.2404,0.2404,0.2404,0.2595,0.2603,0.261,0.2657,0,0,0.2634,0.2637,0,0,0,0,0,0,0,0,0.1983,0.2001,0.2178,0.2186,0.2196,0.2331,0.2283,0.2427,0.2404,0.2326,0.2404,0.2404,0.251,0.2525,0.256,0.2666,0.2674,0.2634,0.2639,0.2642,0.2645,0,0,0,0,0,0,0,0.1972,0.1993,0.2192,0.218,0.2191,0.2216,0.2237,0.231,0.2416,0.2333,0.234,0.2361,0.2515,0.2552,0.2565,0.2677,0.2634,0.2641,0.2646,0.2649,0.2831,0.2832,0,0,0,0,0,0,0.195,0.1984,0.2186,0.2198,0.2087,0.2221,0.2244,0.2288,0.2415,0.2434,0.2361,0.2365,0.2539,0.2556,0.2572,0.2636,0.2642,0.265,0.2654,0.2831,0.2832,0.2832,0,0,0,0,0,0,0.1944,0.1967,0.2179,0.2093,0.2122,0.2226,0.2274,0.2291,0.2329,0.2436,0.2455,0.2379,0.2539,0.2561,0.2635,0.2644,0.2653,0.266,0.2831,0.2831,0.2832,0.2762,0,0,0,0,0,0,0.1935,0.1964,0.1982,0.2093,0.2126,0.2237,0.2274,0.2295,0.2341,0.2348,0.2458,0.2477,0.2541,0.2623,0.2642,0.2654,0.2666,0.2831,0.2831,0.2832,0.2764,0.276,0.2756,0,0,0,0,0,0.1925,0.1955,0.1982,0.2006,0.215,0.2237,0.2256,0.2329,0.2341,0.2361,0.243,0.2473,0.2639,0.2629,0.2653,0.2667,0.2831,0.2831,0.2832,0.2766,0.2761,0.2756,0,0,0,0,0,0,0.1844,0.1971,0.2003,0.2069,0.2141,0.2253,0.228,0.2321,0.2392,0.2396,0.2484,0.2508,0.2574,0.2628,0.2615,0.2719,0.2739,0.2744,0.2681,0.2677,0.2674,0.266,0.2673,0,0,0,0,0,0.1834,0.1892,0.2001,0.2049,0.2084,0.2175,0.2216,0.2265,0.2344,0.2376,0.245,0.2526,0.2595,0.2639,0.2709,0.2772,0.2798,0.2793,0.2789,0.2786,0.2789,0.2828,0.2827,0.2833,0.2833,0.2833,0,0,0.1813,0.189,0.1922,0.2035,0.2097,0.2157,0.22,0.2262,0.2308,0.2385,0.2459,0.2516,0.2607,0.2675,0.2709,0.2723,0.2793,0.2786,0.2783,0.2789,0.2828,0.2827,0.2827,0.2834,0.2834,0.2834,0,0,0.1807,0.187,0.1918,0.1979,0.2072,0.2132,0.2143,0.2249,0.2289,0.2365,0.2424,0.2481,0.2598,0.266,0.2707,0.2724,0.2767,0.2745,0.2725,0.2761,0.2761,0.2761,0.2768,0.2769,0.2748,0.2748,0.2747,0,0.177,0.1862,0.1937,0.1996,0.2044,0.2116,0.2165,0.2221,0.2332,0.2365,0.2377,0.2526,0.2593,0.2677,0.2681,0.2716,0.2733,0.2733,0.2754,0.2755,0.2756,0.2764,0.2766,0.2744,0.2745,0.2745,0.2745,0,0.1813,0.1875,0.1903,0.2007,0.2059,0.2112,0.2197,0.224,0.2285,0.2344,0.2421,0.2502,0.259,0.2614,0.2659,0.2705,0.271,0.2737,0.276,0.2751,0.276,0.2763,0.274,0.2741,0.2742,0.2743,0,0,0.1761,0.1906,0.1915,0.1963,0.2071,0.2122,0.2179,0.2264,0.2299,0.2373,0.2424,0.2522,0.2548,0.2601,0.2654,0.2685,0.2695,0.271,0.2713,0.2705,0.2752,0.2731,0.2733,0.2723,0.2724,0.2725,0.2744,0,0.1771,0.1875,0.1945,0.2022,0.2082,0.2151,0.2201,0.2273,0.233,0.239,0.2454,0.2521,0.255,0.2583,0.2617,0.2686,0.2706,0.2686,0.2773,0.2775,0.2749,0.2738,0.2716,0.273,0.2748,0.2749,0.2749,0,0.1796,0.1867,0.195,0.2051,0.2079,0.2122,0.2206,0.2262,0.2345,0.2385,0.2444,0.2497,0.2562,0.2577,0.2668,0.2653,0.2693,0.2732,0.2735,0.2746,0.2762,0.275,0.2737,0.2739,0.2755,0.2755,0.2754,0,0.175,0.1867,0.1932,0.1971,0.2091,0.212,0.2172,0.2255,0.2302,0.2375,0.2407,0.2487,0.2531,0.2592,0.2666,0.2671,0.275,0.2772,0.2785,0.2783,0.28,0.2798,0.2793,0.2823,0.2823,0.2823,0.2823,0,0.1754,0.1802,0.1913,0.1953,0.201,0.209,0.2144,0.2202,0.2275,0.2329,0.2394,0.2442,0.2537,0.2598,0.2656,0.2723,0.2742,0.2777,0.2792,0.2772,0.2767,0.28,0.2801,0.2824,0.2824,0.2824,0.2824,0,0.1713,0.1789,0.1865,0.1972,0.2,0.2037,0.2129,0.2171,0.2232,0.2298,0.2319,0.2414,0.2489,0.2568,0.2671,0.271,0.2774,0.2795,0.2746,0.2755,0.2764,0.2762,0.2781,0.2788,0.2812,0.2811,0.2811,0,0.1711,0.175,0.186,0.19,0.195,0.2013,0.2061,0.2141,0.2189,0.2286,0.2317,0.2397,0.2465,0.2581,0.266,0.2739,0.2763,0.2764,0.2775,0.2754,0.2764,0.2761,0.2766,0.276,0.276,0.2759,0.2759,0,0.1699,0.1735,0.18,0.1879,0.1934,0.2001,0.207,0.2099,0.2193,0.2243,0.232,0.2372,0.2476,0.2555,0.2643,0.2698,0.2745,0.2754,0.2762,0.2742,0.2712,0.2729,0.2737,0.2754,0.2754,0.2755,0.2755,0.2755,0.1679,0.1716,0.18,0.1871,0.1931,0.1994,0.2039,0.2105,0.217,0.226,0.2304,0.2381,0.2464,0.2587,0.2641,0.2703,0.2717,0.2727,0.273,0.2732,0.2727,0.2701,0.2719,0.2719,0.272,0.272,0.272,0,0.1671,0.1728,0.1792,0.1886,0.1943,0.198,0.2058,0.2103,0.217,0.2243,0.2308,0.2397,0.2474,0.2558,0.264,0.2674,0.2697,0.2693,0.2692,0.2704,0.2709,0.2695,0.2672,0.2672,0.2672,0.2672,0.2672,0.2672,0.1673,0.1739,0.1785,0.1882,0.194,0.2015,0.2056,0.2115,0.2174,0.227,0.2333,0.2387,0.2466,0.2554,0.2626,0.2649,0.2677,0.2666,0.2695,0.2699,0.2703,0.2707,0.2694,0.2671,0.2671,0.2685,0.2685,0.2685]},{"header":{"parameterUnit":"m.s-1","parameterCategory":1,"la1":30.2991,"la2":30.254,"lo1":-89.0895,"lo2":-89.0444,"dy":0.0017,"dx":0.0017,"nx":28,"ny":28,"refTime":"2024-08-02T21:00:00:Z","depth":0,"parameterNumber":3,"parameterNumberName":"V-component_of_WINDS"},"data":[0,0,0,0,0,0,0,0,0,0,0,0,0,0,0,0,0,0,0,0,0,0,0,0,0,0,0,0,0,0,0,0,0,0,0,0,0,0,0,0,0,0,0,0,0,0,0,0,0,0,0,0,0,0,0,0,0,0,1.8175,1.8175,0,1.8185,1.8185,1.8185,1.8214,1.8215,1.8216,1.8216,1.8224,1.8223,1.8223,0,0,0,0,0,0,0,0,0,0,0,0,0,1.8178,1.8178,1.8175,1.8175,1.8175,1.8185,1.8185,1.8185,1.8214,1.8215,1.8216,1.8216,1.8224,1.8223,1.8223,0,0,0,0,0,0,0,0,0,0,0,0,0,1.8181,1.8178,1.8175,1.8191,1.8193,1.8185,1.8185,1.8185,1.8214,1.8215,1.8216,1.8217,1.8224,1.8223,1.8223,1.82,0,0,1.8221,1.8221,0,0,0,0,0,0,0,0,1.8181,1.8181,1.8189,1.819,1.8192,1.82,1.8189,1.819,1.8214,1.8206,1.8216,1.8217,1.8215,1.8215,1.8215,1.82,1.8201,1.8221,1.8221,1.822,1.822,0,0,0,0,0,0,0,1.8181,1.8181,1.8179,1.8189,1.8191,1.8197,1.8198,1.8189,1.8205,1.8207,1.8209,1.821,1.8216,1.8215,1.8215,1.8201,1.8221,1.8221,1.822,1.822,1.8167,1.8166,0,0,0,0,0,0,1.8179,1.8181,1.8179,1.8179,1.8189,1.8196,1.8198,1.8196,1.8205,1.8207,1.8209,1.8211,1.8216,1.8216,1.8215,1.8188,1.822,1.822,1.822,1.8168,1.8166,1.8165,0,0,0,0,0,0,1.8179,1.8178,1.8178,1.8181,1.8181,1.8195,1.8193,1.8196,1.8195,1.8207,1.8209,1.8206,1.8216,1.8216,1.8203,1.8189,1.822,1.8219,1.8169,1.8167,1.8166,1.8134,0,0,0,0,0,0,1.8179,1.8178,1.817,1.818,1.8181,1.8167,1.8192,1.8195,1.8194,1.8197,1.8204,1.8206,1.8217,1.8204,1.8203,1.8189,1.8219,1.817,1.8168,1.8166,1.8136,1.8131,1.8127,0,0,0,0,0,1.8179,1.8161,1.817,1.817,1.8172,1.8166,1.8167,1.818,1.8193,1.8185,1.8192,1.8206,1.8191,1.8203,1.8201,1.8187,1.8171,1.8169,1.8166,1.8138,1.8132,1.8127,0,0,0,0,0,0,1.8148,1.8162,1.8173,1.8158,1.8161,1.8171,1.8161,1.8174,1.8172,1.8175,1.8191,1.8192,1.8177,1.8181,1.8194,1.8164,1.8183,1.818,1.8162,1.8157,1.8152,1.8151,1.8218,0,0,0,0,0,1.814,1.8136,1.8148,1.8133,1.8134,1.8147,1.8146,1.8156,1.8159,1.816,1.8167,1.8168,1.8164,1.8161,1.8157,1.8137,1.8138,1.8126,1.8122,1.8118,1.8115,1.8103,1.8097,1.8157,1.8157,1.8157,0,0,1.8123,1.813,1.8126,1.8127,1.8131,1.8124,1.8148,1.8141,1.8136,1.8159,1.8147,1.8152,1.8155,1.8138,1.8131,1.814,1.8099,1.8115,1.8112,1.8111,1.81,1.8094,1.8089,1.8156,1.8156,1.8156,0,0,1.8087,1.8093,1.8081,1.8084,1.8089,1.8098,1.8095,1.8103,1.8107,1.8096,1.8113,1.8106,1.8099,1.81,1.8099,1.8063,1.8076,1.8062,1.8038,1.8026,1.8021,1.8017,1.8002,1.7997,1.8059,1.8059,1.8059,0,1.8065,1.8057,1.8073,1.8064,1.8064,1.8085,1.8072,1.8074,1.8077,1.8076,1.8087,1.8077,1.808,1.8063,1.8054,1.8054,1.8049,1.8061,1.8021,1.8016,1.8013,1.7999,1.7994,1.8057,1.8057,1.8058,1.8058,0,1.8028,1.8022,1.8012,1.8015,1.8013,1.8002,1.8015,1.8012,1.8022,1.8029,1.8016,1.8021,1.8018,1.8015,1.8025,1.7999,1.8004,1.8018,1.8037,1.8005,1.7992,1.7988,1.8055,1.8055,1.8056,1.8056,0,0,1.7974,1.7986,1.7982,1.7983,1.7989,1.7985,1.7974,1.7972,1.7968,1.7969,1.796,1.7952,1.7964,1.7964,1.7974,1.7963,1.7932,1.7978,1.7978,1.7968,1.7902,1.7891,1.7885,1.7941,1.794,1.7939,1.7901,0,1.794,1.7923,1.7937,1.7917,1.7911,1.7931,1.7921,1.7924,1.793,1.7925,1.7931,1.7925,1.7942,1.7942,1.7932,1.7938,1.7919,1.7941,1.7931,1.793,1.7928,1.7879,1.7868,1.7831,1.7897,1.7896,1.7895,0,1.7898,1.7897,1.7877,1.7884,1.7882,1.7874,1.7872,1.7868,1.787,1.7875,1.7874,1.7886,1.7875,1.7894,1.7878,1.7892,1.7889,1.7891,1.789,1.7889,1.791,1.7875,1.782,1.7814,1.7888,1.7889,1.7889,0,1.7859,1.7853,1.784,1.7841,1.7849,1.7842,1.7845,1.7849,1.7846,1.7844,1.7843,1.7839,1.7837,1.7834,1.7844,1.7858,1.7826,1.7847,1.7828,1.7828,1.782,1.782,1.7763,1.782,1.782,1.782,1.782,0,1.7818,1.7805,1.7823,1.7815,1.78,1.7815,1.7799,1.7804,1.7807,1.7799,1.7815,1.7807,1.7822,1.7815,1.7823,1.7807,1.7807,1.7809,1.7811,1.7807,1.7807,1.7804,1.7807,1.7818,1.7819,1.7819,1.7819,0,1.7772,1.7784,1.777,1.7779,1.7781,1.7769,1.7776,1.7768,1.7775,1.7765,1.7763,1.7774,1.7767,1.7777,1.777,1.7776,1.7754,1.776,1.7753,1.7754,1.7735,1.7736,1.7673,1.7665,1.7728,1.7727,1.7727,0,1.7745,1.7735,1.7743,1.7739,1.7741,1.7735,1.7732,1.7747,1.7743,1.7744,1.7736,1.773,1.7726,1.7713,1.7719,1.7713,1.7719,1.7697,1.7718,1.7714,1.7717,1.7717,1.7715,1.7693,1.7692,1.7691,1.7691,0,1.7695,1.7701,1.7698,1.7696,1.7692,1.7691,1.7691,1.7687,1.7701,1.7696,1.7689,1.7686,1.7679,1.7672,1.7668,1.767,1.7682,1.7684,1.768,1.7675,1.7671,1.7671,1.774,1.7686,1.7686,1.7687,1.7687,1.7687,1.7657,1.7649,1.7653,1.7648,1.7649,1.7648,1.7641,1.7647,1.7642,1.7638,1.7646,1.7636,1.7638,1.7634,1.7634,1.7625,1.7635,1.7628,1.7626,1.7624,1.7621,1.7673,1.7625,1.7625,1.7625,1.7625,1.7625,0,1.7607,1.7611,1.7606,1.7605,1.7601,1.7614,1.7614,1.7609,1.7601,1.7601,1.7597,1.7588,1.7581,1.7586,1.758,1.7572,1.7578,1.757,1.757,1.757,1.7613,1.7618,1.7566,1.7566,1.7566,1.7566,1.7566,1.7566,1.7581,1.7567,1.7573,1.756,1.7563,1.7554,1.7553,1.7552,1.7552,1.7542,1.7536,1.754,1.7542,1.7536,1.753,1.7532,1.7528,1.7518,1.7522,1.7562,1.7567,1.7573,1.7577,1.7518,1.7518,1.7479,1.7479,1.7479]}]]